Regional Weather Roundup
Issued by NWS Goodland, KS

Home | Current Version | Previous Version | Graphics & Text | Print | Product List | Glossary On
Versions: 1 2 3 4 5 6 7 8 9 10 11 12 13 14 15 16 17 18 19 20 21 22 23 24 25 26 27 28 29 30 31 32 33 34 35 36 37 38 39 40 41 42 43 44 45 46 47 48 49 50
000
ASUS43 KGLD 020708
RWRGLD

GOODLAND FORECAST AREA HOURLY WEATHER ROUNDUP
NATIONAL WEATHER SERVICE GOODLAND KS
100 AM MDT WED SEP 02 2015

...OFFICIAL OBSERVATIONS...

CITY           SKY/WX    TMP DP  RH WIND       PRES   REMARKS
GOODLAND KS    PTCLDY    70  57  63 SW3       29.98F
HILL CITY KS   CLEAR     81  57  43 S15G24    29.92S
IMPERIAL NEB   CLEAR     67  57  70 CALM      29.94F
MCCOOK NEB     CLEAR     70  58  65 CALM      29.91S
AKRON CO       CLEAR     68  48  48 W13       30.05S
BURLINGTON CO  MOCLDY    64  57  78 W5        30.02F
LIMON CO       PTCLDY    59  51  75 NW9       30.12S
$$

...UNOFFICIAL OBSERVATIONS...

CITY           SKY/WX    TMP DP  RH WIND       PRES   REMARKS
COLBY KS       CLEAR     73  61  64 S9        29.96F
GOVE KS          N/A     75  32  20 MISG        N/A
LENORA KS        N/A     78  32  18 MISG        N/A
NORTON KS      CLEAR     75  54  46 S12       29.91S
KIT CARSON CO    N/A     68  59  73 MISG        N/A
YUMA CO          N/A     63  56  77 W5          N/A
$$



USA.gov is the U.S. government's official web portal to all federal, state and local government web resources and services.